Regional Weather Roundup
Issued by NWS

Home | Current Version | Previous Version | Graphics & Text | Print | Product List | Glossary On
Versions: 1 2 3 4 5 6 7 8 9 10 11 12 13 14 15 16 17 18 19 20 21 22 23 24 25 26 27 28 29 30 31 32 33 34 35 36 37 38 39 40 41 42 43 44 45 46 47 48 49 50
000
ASUS43 KFSD 232010
RWRSD

WEATHER ROUNDUP FOR SOUTH DAKOTA
NATIONAL WEATHER SERVICE SIOUX FALLS SD
300 PM CDT TUE MAY 23 2017

NOTE: "FAIR" INDICATES FEW OR NO CLOUDS BELOW 12,000 FEET WITH NO
SIGNIFICANT WEATHER AND/OR OBSTRUCTIONS TO VISIBILITY.


SDZ001>005-009-010-012>017-232100-
NORTHWEST AND NORTH CENTRAL SOUTH DAKOTA

CITY           SKY/WX    TMP DP  RH WIND       PRES   REMARKS
BUFFALO          N/A     65  33  30 NE9G24    30.04F
FAITH            N/A     59  34  39 N25G36    30.06F
MOBRIDGE       CLOUDY    58  38  47 N16G26    30.02F
$$

SDZ012>016-024>037-041>051-057-063-072>074-232100-
SOUTHWEST AND SOUTH CENTRAL SOUTH DAKOTA

CITY           SKY/WX    TMP DP  RH WIND       PRES   REMARKS
RAPID CTY ARPT CLOUDY    63  34  33 N25G35    30.08F
PIERRE         LGT RAIN  58  39  49 N24G30    30.01S
CUSTER         MOSUNNY   56  25  30 N12G22    30.11F
ELLSWORTH AFB  MOSUNNY   62  32  32 N23G31    30.08
PHILIP         CLOUDY    61  33  35 N21G31    30.04S
PINE RIDGE     CLOUDY    56  35  45 N16G26    30.09F
SPEARFISH      FAIR      59  34  38 N16       30.13F
WINNER         CLOUDY    55  41  59 N18G28    29.99F
$$

SDZ004>011-016>023-039-040-232100-
NORTHEAST SOUTH DAKOTA

CITY           SKY/WX    TMP DP  RH WIND       PRES   REMARKS
ABERDEEN       CLOUDY    51  42  71 N20G26    29.98F
WATERTOWN      CLOUDY    51  45  79 N25       29.89S
BROOKINGS      CLOUDY    53  46  77 N20       29.87S
SISSETON         N/A     51  49  92 N18       29.92R
$$

SDZ017-020-022-023-036>040-048>070-232100-
SOUTHEAST SOUTH DAKOTA

CITY           SKY/WX    TMP DP  RH WIND       PRES   REMARKS
SIOUX FALLS    CLOUDY    56  47  71 N18G28    29.86S
HURON          CLOUDY    55  45  68 N25G31    29.93F
CHAMBERLAIN    CLOUDY    55  43  63 N15G23    29.98S
MITCHELL       CLOUDY    57  44  62 N22G30    29.93F
YANKTON        CLOUDY    52  46  82 NW17G31   29.89F
$$

ABBREVIATIONS USED IN REMARKS
   TC - TEMPERATURE IN CELSIUS
  WCI - WIND CHILL INDEX
   HX - HEAT INDEX
  VSB - VISIBILITY





USA.gov is the U.S. government's official web portal to all federal, state and local government web resources and services.